| time (UTC) | temp F | wind direction | speed knots | gust knots | rain 1hr in | rain 24hr in | rain mn in | humidity % | barometer mb |
| 20260502163035 | 66 | 353 | 0.9 | 5.2 | 0.00 | 0.24 | 0.00 | 62 | 1023.2 |
| 20260502161533 | 65 | 172 | 1.7 | 7.0 | 0.00 | 0.24 | 0.00 | 62 | 1023.4 |
| 20260502151521 | 62 | 304 | 1.7 | 6.1 | 0.00 | 0.24 | 0.00 | 65 | 1023.3 |
| 20260502123047 | 46 | 298 | 0.0 | 0.0 | 0.00 | 0.49 | 0.00 | 95 | 1021.6 |
| 20260502121548 | 46 | 309 | 0.0 | 0.0 | 0.00 | 0.49 | 0.00 | 95 | 1021.2 |
| 20260502114541 | 45 | 296 | 0.0 | 0.0 | 0.00 | 0.50 | 0.00 | 95 | 1020.8 |
| 20260502113039 | 45 | 286 | 0.0 | 0.0 | 0.00 | 0.50 | 0.00 | 94 | 1020.7 |
| 20260502111537 | 46 | 286 | 0.0 | 0.0 | 0.00 | 0.50 | 0.00 | 94 | 1020.4 |
| 20260502110035 | 46 | 286 | 0.0 | 0.0 | 0.00 | 0.50 | 0.00 | 94 | 1020.3 |
| 20260502104541 | 46 | 326 | 0.0 | 0.9 | 0.00 | 0.64 | 0.00 | 94 | 1020.1 |
| 20260502103037 | 46 | 329 | 0.0 | 0.0 | 0.00 | 0.64 | 0.00 | 94 | 1020.0 |
| 20260502101529 | 47 | 290 | 0.0 | 0.0 | 0.00 | 0.64 | 0.00 | 94 | 1019.9 |
| 20260502091519 | 48 | 322 | 0.0 | 3.5 | 0.00 | 0.66 | 0.00 | 93 | 1018.9 |
| 20260502071507 | 49 | 87 | 0.0 | 2.6 | 0.00 | 0.73 | 0.00 | 93 | 1018.1 |
| 20260502070013 | 49 | 279 | 0.0 | 5.2 | 0.00 | 0.73 | 0.00 | 93 | 1018.2 |
| 20260502064515 | 48 | 297 | 0.0 | 2.6 | 0.00 | 0.73 | 0.00 | 94 | 1018.3 |
| 20260502063107 | 48 | 357 | 0.0 | 1.7 | 0.00 | 0.73 | 0.00 | 93 | 1018.1 |
| 20260502061502 | 48 | 7 | 0.0 | 1.7 | 0.00 | 0.73 | 0.00 | 93 | 1018.3 |
| 20260502060001 | 48 | 26 | 0.0 | 0.9 | 0.00 | 0.73 | 0.00 | 92 | 1018.3 |
| 20260502054500 | 49 | 68 | 0.0 | 0.0 | 0.00 | 0.75 | 0.00 | 92 | 1018.1 |
| 20260502053106 | 49 | 68 | 0.0 | 0.0 | 0.00 | 0.75 | 0.00 | 91 | 1018.1 |
| 20260502051602 | 49 | 68 | 0.0 | 0.0 | 0.00 | 0.75 | 0.00 | 91 | 1018.1 |
| 20260502050101 | 49 | 68 | 0.0 | 0.0 | 0.00 | 0.75 | 0.00 | 91 | 1018.3 |
| 20260502044555 | 50 | 79 | 0.0 | 0.9 | 0.00 | 0.75 | 0.75 | 90 | 1018.2 |
| 20260502043053 | 50 | 78 | 0.0 | 0.0 | 0.00 | 0.75 | 0.75 | 90 | 1018.2 |
| 20260502041549 | 50 | 66 | 0.0 | 0.9 | 0.00 | 0.75 | 0.75 | 90 | 1017.9 |
| 20260502040049 | 51 | 2 | 0.0 | 1.7 | 0.00 | 0.75 | 0.75 | 89 | 1017.8 |
| 20260502034545 | 51 | 294 | 0.0 | 2.6 | 0.00 | 0.75 | 0.75 | 89 | 1017.8 |
| 20260502033043 | 51 | 104 | 0.0 | 4.3 | 0.00 | 0.75 | 0.75 | 89 | 1017.4 |
| 20260502031543 | 52 | 104 | 0.0 | 3.5 | 0.00 | 0.75 | 0.75 | 89 | 1017.4 |
| 20260502030039 | 52 | 84 | 0.0 | 2.6 | 0.00 | 0.75 | 0.75 | 89 | 1017.3 |
| 20260502024537 | 52 | 282 | 0.9 | 5.2 | 0.00 | 0.80 | 0.75 | 88 | 1017.0 |
| 20260502023033 | 53 | 25 | 1.7 | 7.8 | 0.00 | 0.80 | 0.75 | 90 | 1016.8 |
| 20260502021530 | 53 | 151 | 0.0 | 4.3 | 0.00 | 0.80 | 0.75 | 91 | 1016.6 |
| 20260502020029 | 53 | 73 | 0.0 | 3.5 | 0.00 | 0.80 | 0.75 | 92 | 1016.2 |
| 20260502014531 | 53 | 300 | 0.9 | 6.1 | 0.00 | 0.82 | 0.75 | 92 | 1015.9 |
| 20260502013025 | 53 | 9 | 0.9 | 5.2 | 0.00 | 0.82 | 0.75 | 92 | 1015.6 |
| 20260502011542 | 53 | 78 | 0.9 | 6.1 | 0.00 | 0.82 | 0.75 | 92 | 1015.4 |
| 20260502010022 | 54 | 335 | 1.7 | 5.2 | 0.00 | 0.82 | 0.75 | 93 | 1015.1 |
| 20260502004518 | 54 | 314 | 0.0 | 3.5 | 0.00 | 0.82 | 0.75 | 94 | 1014.8 |
| 20260502003021 | 54 | 97 | 0.9 | 3.5 | 0.00 | 0.82 | 0.75 | 93 | 1014.6 |
| 20260502001515 | 54 | 55 | 0.9 | 7.8 | 0.00 | 0.82 | 0.75 | 93 | 1014.1 |
| 20260502000011 | 54 | 78 | 0.9 | 6.1 | 0.00 | 0.82 | 0.75 | 93 | 1013.7 |
| 20260501234510 | 54 | 17 | 1.7 | 7.0 | 0.00 | 0.82 | 0.75 | 93 | 1013.2 |
| 20260501233008 | 55 | 177 | 1.7 | 7.0 | 0.01 | 0.82 | 0.75 | 93 | 1013.0 |
| 20260501231511 | 55 | 334 | 0.9 | 9.6 | 0.01 | 0.82 | 0.75 | 93 | 1012.6 |
| 20260501230004 | 56 | 280 | 0.9 | 7.0 | 0.01 | 0.82 | 0.75 | 94 | 1012.3 |
| 20260501224503 | 56 | 241 | 0.9 | 7.8 | 0.01 | 0.82 | 0.75 | 95 | 1012.3 |
| 20260501223001 | 56 | 308 | 0.9 | 6.1 | 0.00 | 0.81 | 0.74 | 95 | 1012.1 |
| 20260501221618 | 56 | 7 | 2.6 | 7.8 | 0.00 | 0.81 | 0.74 | 95 | 1012.3 |
| 20260501220101 | 57 | 28 | 1.7 | 8.7 | 0.00 | 0.81 | 0.74 | 95 | 1012.3 |
| 20260501214602 | 57 | 338 | 1.7 | 8.7 | 0.00 | 0.81 | 0.74 | 95 | 1012.0 |
| 20260501213055 | 57 | 331 | 2.6 | 6.1 | 0.01 | 0.81 | 0.74 | 95 | 1012.4 |
| 20260501211559 | 58 | 12 | 2.6 | 8.7 | 0.03 | 0.81 | 0.74 | 95 | 1012.0 |
| 20260501210055 | 57 | 267 | 2.6 | 7.0 | 0.04 | 0.81 | 0.74 | 95 | 1011.9 |
| 20260501204554 | 57 | 19 | 1.7 | 7.8 | 0.06 | 0.81 | 0.74 | 95 | 1012.2 |
| 20260501203051 | 58 | 353 | 3.5 | 13.0 | 0.06 | 0.80 | 0.73 | 94 | 1012.3 |
| 20260501201551 | 58 | 90 | 2.6 | 7.8 | 0.04 | 0.78 | 0.71 | 95 | 1012.2 |
| 20260501200051 | 58 | 301 | 3.5 | 8.7 | 0.03 | 0.77 | 0.70 | 94 | 1012.0 |
| 20260501194551 | 59 | 300 | 1.7 | 7.0 | 0.02 | 0.75 | 0.68 | 95 | 1011.3 |
| 20260501193049 | 59 | 257 | 0.9 | 7.0 | 0.01 | 0.74 | 0.67 | 94 | 1011.1 |
| 20260501191551 | 60 | 26 | 2.6 | 4.3 | 0.03 | 0.74 | 0.67 | 95 | 1010.7 |
| 20260501190059 | 60 | 324 | 1.7 | 4.3 | 0.05 | 0.74 | 0.67 | 95 | 1010.9 |
| 20260501184548 | 60 | 323 | 1.7 | 7.8 | 0.04 | 0.73 | 0.66 | 95 | 1010.0 |
| 20260501183052 | 60 | 54 | 0.9 | 3.5 | 0.04 | 0.73 | 0.66 | 95 | 1011.1 |
| 20260501181547 | 60 | 73 | 2.6 | 5.2 | 0.01 | 0.70 | 0.63 | 94 | 1010.7 |
| 20260501180046 | 60 | 49 | 0.9 | 7.8 | 0.03 | 0.69 | 0.62 | 94 | 1011.7 |